Weather History for Christmas Island, IS

Change the Weather History Date:

Monday, May 7, 2012

  Actual Average Record
Temperature  
Mean Temperature 78 °F -  
Max Temperature 80 °F 79 °F 84 °F (2013)
Min Temperature 77 °F 73 °F 69 °F (2011)
Cooling Degree Days 14    
Growing Degree Days 28 (Base 50)    
Moisture  
Dew Point 75 °F    
Average Humidity 87    
Maximum Humidity 94    
Minimum Humidity 76    
Precipitation  
Precipitation 0.00 in - - ()
Sea Level Pressure  
Sea Level Pressure 29.86 in    
Wind  
Wind Speed 8 mph ()    
Max Wind Speed 10 mph    
Max Gust Speed -    
Visibility 6.2 miles    
Events      
Averages and records for this station are not official NWS values.
T = Trace of Precipitation, MM = Missing Value Source: Averaged Metar Reports

Daily Weather History Graph

Daily Weather History Graph

Search for Another Location

Airport:

Trip Planner

Search our weather history database for the weather conditions in past years. The results will help you decide how hot, cold, wet, or windy it might be!

Date:

Astronomy

May. 07, 2012 Rise Set
Actual Time 6:03 AM CXT 5:44 PM CXT
Civil Twilight 5:41 AM CXT 6:06 PM CXT
Nautical Twilight 5:15 AM CXT 6:31 PM CXT
Astronomical Twilight 4:50 AM CXT 6:56 PM CXT
Moon 6:56 PM CXT (5/7) 6:57 AM CXT (5/7)
Length of Visible Light 12h 25m
Length of Day
11h 41m
Full, 98% of the Moon is Illuminated
May 7
Full
May 13
Last Quarter
May 21
New
May 29
First Quarter
Jun 4
Full

Hourly Weather History & Observations

Time (CXT) Temp. Heat Index Dew Point Humidity Pressure Visibility Wind Dir Wind Speed Gust Speed Precip Events Conditions
10:13 AM 80.6 °F 85.4 °F 73.4 °F 79% 29.92 in 6.2 mi North - - N/A   Mostly Cloudy
10:55 AM 80.6 °F 85.4 °F 73.4 °F 79% 29.89 in 6.2 mi ESE 10.4 mph - N/A   Mostly Cloudy
11:00 AM 80.6 °F 85.4 °F 73.4 °F 79% 29.89 in 6.2 mi ESE 10.4 mph - N/A   Mostly Cloudy
12:00 PM 80 °F - 74 °F 76% 29.84 in - ESE 9.2 mph - -  
12:00 PM 80.6 °F 85.4 °F 73.4 °F 79% 29.89 in 6.2 mi ESE 9.2 mph - N/A   Mostly Cloudy
12:04 PM 80.6 °F 85.4 °F 73.4 °F 79% 29.89 in 6.2 mi ESE 10.4 mph - N/A   Mostly Cloudy
12:06 PM 80.6 °F 85.4 °F 73.4 °F 79% 29.89 in 6.2 mi ESE 10.4 mph - N/A   Mostly Cloudy
1:00 PM 80 °F - 74 °F 77% 29.82 in - ESE 8.1 mph - -  
1:00 PM 80.6 °F 85.4 °F 73.4 °F 79% 29.86 in 6.2 mi ESE 8.1 mph - N/A   Mostly Cloudy
1:08 PM 78.8 °F - 73.4 °F 83% 29.86 in 6.2 mi ESE 8.1 mph - N/A   Mostly Cloudy
2:00 PM 80.6 °F 86.2 °F 75.2 °F 84% 29.86 in 6.2 mi ESE 9.2 mph - N/A   Scattered Clouds
3:00 PM 79 °F - 74 °F 81% 29.79 in - ESE 9.2 mph - -   Overcast
3:02 PM 78.8 °F - 75.2 °F 89% 29.83 in 6.2 mi ESE 9.2 mph - N/A   Mostly Cloudy
4:00 PM 78 °F - 75 °F 87% 29.79 in - ESE 6.9 mph - -  
4:00 PM 78.8 °F - 75.2 °F 89% 29.83 in 6.2 mi ESE 6.9 mph - N/A   Mostly Cloudy
4:14 PM 78.8 °F - 75.2 °F 89% 29.83 in 6.2 mi ESE 5.8 mph - N/A   Scattered Clouds
4:55 PM 78.8 °F - 75.2 °F 89% 29.83 in 6.2 mi ESE 6.9 mph - N/A   Mostly Cloudy
5:00 PM 78.8 °F - 75.2 °F 89% 29.83 in 6.2 mi ESE 5.8 mph - N/A   Mostly Cloudy
6:00 PM 77 °F - 74 °F 89% 29.80 in - ESE 10.4 mph - -   Overcast
6:00 PM 77.0 °F - 75.2 °F 94% 29.83 in 6.2 mi ESE 10.4 mph - N/A   Overcast
6:29 PM 77.0 °F - 73.4 °F 89% 29.86 in 6.2 mi ESE 9.2 mph - N/A   Overcast
7:00 PM 78 °F - 75 °F 86% 29.82 in - ESE 9.2 mph - -  
7:00 PM 77.0 °F - 75.2 °F 94% 29.86 in 6.2 mi ESE 9.2 mph - N/A   Overcast
8:00 PM 77.0 °F - 75.2 °F 94% 29.86 in 6.2 mi SE 8.1 mph - N/A   Mostly Cloudy
9:00 PM 77 °F - 76 °F 94% 29.84 in - SE 10.4 mph - -   Overcast
9:00 PM 77.0 °F - 75.2 °F 94% 29.89 in 6.2 mi SE 10.4 mph - N/A   Overcast
9:51 PM 77.0 °F - 73.4 °F 89% 29.89 in 6.2 mi SE 9.2 mph - N/A   Overcast
9:55 PM 77.0 °F - 75.2 °F 94% 29.89 in 6.2 mi SE 9.2 mph - N/A   Overcast
10:00 PM 77 °F - 75 °F 90% 29.85 in - SE 10.4 mph - -  
10:00 PM 77.0 °F - 75.2 °F 94% 29.89 in 6.2 mi SE 10.4 mph - N/A   Overcast
10:11 PM 77.0 °F - 75.2 °F 94% 29.89 in 6.2 mi SE 9.2 mph - N/A   Mostly Cloudy
10:21 PM 77.0 °F - 75.2 °F 94% 29.89 in 6.2 mi SE 9.2 mph - N/A   Mostly Cloudy
10:34 PM 77.0 °F - 75.2 °F 94% 29.89 in 6.2 mi SE 9.2 mph - N/A   Mostly Cloudy
10:41 PM 77.0 °F - 75.2 °F 94% 29.89 in 6.2 mi SE 10.4 mph - N/A   Overcast
11:00 PM 77.0 °F - 75.2 °F 94% 29.89 in 6.2 mi SE 10.4 mph - N/A   Mostly Cloudy